Regional Weather Roundup
Issued by NWS Little Rock, AR

Home | Current Version | Previous Version | Graphics & Text | Print | Product List | Glossary On
Versions: 1 2 3 4 5 6 7 8 9 10 11 12 13 14 15 16 17 18 19 20 21 22 23 24 25 26 27 28 29 30 31 32 33 34 35 36 37 38 39 40 41 42 43 44 45 46 47 48 49 50
000
ASUS44 KLZK 201805
RWRLZK

WEATHER ROUNDUP FOR ARKANSAS
NATIONAL WEATHER SERVICE LITTLE ROCK AR
100 PM CDT MON OCT 20 2014

NOTE: "FAIR" INDICATES FEW OR NO CLOUDS BELOW 12,000 FEET WITH NO
SIGNIFICANT WEATHER AND/OR OBSTRUCTIONS TO VISIBILITY.

ARZ001-003-010-029-201900-
NORTHWEST ARKANSAS

CITY           SKY/WX    TMP DP  RH WIND       PRES   REMARKS
FAYETTEVILLE   CLOUDY    63  56  78 W5        30.08
6HR MIN TEMP:  53; 6HR MAX TEMP:  63; 6HR PCP:  0.09;

FORT SMITH     CLOUDY    64  55  72 CALM      30.08
6HR MIN TEMP:  54; 6HR MAX TEMP:  64; 6HR PCP: TRACE;

HARRISON       MOSUNNY   71  58  63 W9        30.07
6HR MIN TEMP:  55; 6HR MAX TEMP:  71; 6HR PCP: TRACE;

BENTONVILLE    CLOUDY    64  55  72 SW7       30.08F
6HR MIN TEMP:  55; 6HR MAX TEMP:  64; 6HR PCP:  0.03;

ROGERS         CLOUDY    67  57  70 W7        30.09F
6HR MIN TEMP:  54; 6HR MAX TEMP:  67; 6HR PCP: TRACE;

SILOAM SPGS    PTSUNNY   66  54  63 W7        30.09F
6HR MIN TEMP:  55; 6HR MAX TEMP:  66; 6HR PCP:  0.28;

HIGHFILL       CLOUDY    65  57  75 SW6       30.08S
6HR MIN TEMP:  54; 6HR MAX TEMP:  65;

SPRINGDALE     CLOUDY    64  55  72 W7        30.10
$$

ARZ004-005-016-201900-
NORTH CENTRAL ARKANSAS

CITY           SKY/WX    TMP DP  RH WIND       PRES   REMARKS
BATESVILLE     PTSUNNY   68  55  64 SW5       30.05F
6HR MIN TEMP:  52; 6HR MAX TEMP:  68;

FLIPPIN        PTSUNNY   70  55  60 NW8       30.05F
6HR MIN TEMP:  52; 6HR MAX TEMP:  70;

MTN HOME       PTSUNNY   68  55  63 VRB5      30.04
6HR MIN TEMP:  53; 6HR MAX TEMP:  70;

$$

ARZ040-041-201900-
WEST CENTRAL ARKANSAS

CITY           SKY/WX    TMP DP  RH WIND       PRES   REMARKS
MENA           CLOUDY    72  54  53 CALM      30.09F
MOUNT IDA      PTSUNNY   69  53  56 W3        30.06F
6HR MIN TEMP:  46; 6HR MAX TEMP:  70;

$$

ARZ009-017-025-026-028-201900-
NORTHEAST ARKANSAS

CITY           SKY/WX    TMP DP  RH WIND       PRES   REMARKS
CORNING        FAIR      68  54  60 SW10      30.02F
JONESBORO      MOSUNNY   70  53  54 SW8       30.04
6HR MIN TEMP:  50; 6HR MAX TEMP:  70;

NEWPORT        CLOUDY    72  54  53 SW9       30.06F
6HR MIN TEMP:  48; 6HR MAX TEMP:  73;

WALNUT RIDGE   MOSUNNY   70  52  52 SW10      30.03F
6HR MIN TEMP:  52; 6HR MAX TEMP:  70;

BLYTHEVILLE    CLOUDY    69  51  52 SW9       30.04
6HR MIN TEMP:  52; 6HR MAX TEMP:  70;

NW BLYTHEVILLE PTSUNNY   68  52  56 W10       30.05F
$$

ARZ022-023-033-042-044-201900-
CENTRAL ARKANSAS

CITY           SKY/WX    TMP DP  RH WIND       PRES   REMARKS
LITTLE ROCK    CLOUDY    68  51  54 SW7       30.08
6HR MIN TEMP:  49; 6HR MAX TEMP:  68;

N LITTLE ROCK  CLOUDY    65  55  69 CALM      30.08F
6HR MIN TEMP:  52; 6HR MAX TEMP:  65;

JACKSONVILLE   CLOUDY    67  52  59 VRB6      30.08F
6HR MIN TEMP:  47; 6HR MAX TEMP:  68;

SEARCY         CLOUDY    66  53  63 SW7       30.08F
6HR MIN TEMP:  46; 6HR MAX TEMP:  66;

HOT SPRINGS    CLOUDY    64  56  75 CALM      30.09
6HR MIN TEMP:  48; 6HR MAX TEMP:  64; 6HR PCP:  0.02;

RUSSELLVILLE   CLOUDY    66  54  65 VRB3      30.08
6HR MIN TEMP:  50; 6HR MAX TEMP:  67;

$$

ARZ036-201900-
EAST ARKANSAS

CITY           SKY/WX    TMP DP  RH WIND       PRES   REMARKS
WEST MEMPHIS   PTSUNNY   69  51  52 W7        30.06
6HR MIN TEMP:  43; 6HR MAX TEMP:  69;

$$

ARZ050-053-066-070-073-201900-
SOUTHWEST ARKANSAS

CITY           SKY/WX    TMP DP  RH WIND       PRES   REMARKS
ARKADELPHIA    FAIR      71  56  59 SW6       30.09F
6HR MIN TEMP:  47; 6HR MAX TEMP:  71;

CAMDEN         MOSUNNY   73  50  43 E5        30.10F
TEXARKANA      MOSUNNY   71  53  52 CALM      30.09
6HR MIN TEMP:  48; 6HR MAX TEMP:  73;

EL DORADO      SUNNY     72  51  47 CALM      30.09
6HR MIN TEMP:  45; 6HR MAX TEMP:  72;

DE QUEEN       MOSUNNY   71  54  54 NW3       30.07
6HR MIN TEMP:  48; 6HR MAX TEMP:  72;

$$

ARZ056-057-069-201900-
SOUTHEAST ARKANSAS

CITY           SKY/WX    TMP DP  RH WIND       PRES   REMARKS
PINE BLUFF     MOSUNNY   69  51  52 SW8       30.08
6HR MIN TEMP:  45; 6HR MAX TEMP:  70;

STUTTGART      SUNNY     72  52  49 W6        30.08F
6HR MIN TEMP:  48; 6HR MAX TEMP:  72;

MONTICELLO     SUNNY     70  50  49 VRB5      30.08
6HR MIN TEMP:  45; 6HR MAX TEMP:  71; 6HR PCP: TRACE;


$$




USA.gov is the U.S. government's official web portal to all federal, state and local government web resources and services.